Temp
23 23 24 26 25 23 31 33 34 33 32 32 32 31 29 29 28 25 26 25 23 22 23 23 22 21 20 20 20 20 20 19 19 19 19 19 19 19 19 19 18 18 18 18 18 18 18 18 18
21 23 25 21 21 24 31 34 32 32 33 32 31 31 29 28 26 26 24 25 23 22 23 23 22 21 20 20 20 20 19 19 18 18 19 19 18 18 19 18 18 18 18 18 18 18 18 18 18
23 22 22 18 19 25 31 33 33 31 31 30 27 28 29 28 27 25 24 25 24 22 21 23 22 21 20 20 20 20 19 19 18 18 18 18 18 18 19 19 18 18 18 18 18 18 18 18 18
24 27 28 28 27 28 33 34 33 31 30 29 27 26 27 27 27 25 24 25 24 23 21 21 22 21 20 20 20 20 19 19 19 18 19 18 18 18 19 19 19 18 18 18 18 18 18 18 18
26 27 19 19 21 33 35 34 34 31 32 29 22 18 24 26 25 24 24 24 24 23 23 22 22 21 21 20 20 20 19 19 19 19 19 19 19 19 19 19 19 18 18 18 18 18 18 18 18
28 26 24 19 25 33 35 35 35 32 33 26 20 19 19 25 25 24 24 24 23 23 22 22 22 21 21 20 20 20 20 20 20 19 19 19 19 19 19 19 19 19 18 18 18 18 18 17 18
29 23 27 25 23 28 35 33 34 33 31 31 23 20 23 26 25 24 24 24 23 21 21 22 22 21 21 20 20 20 20 20 20 20 19 19 19 19 18 19 19 19 18 18 18 18 18 18 18
30 32 24 26 29 25 32 33 33 33 29 30 27 18 22 25 24 23 23 23 23 21 20 21 20 21 21 20 20 20 20 20 20 20 20 20 20 19 19 19 19 19 18 18 18 18 18 18 18
30 26 19 21 22 32 34 34 33 32 27 24 24 26 26 24 24 22 21 21 21 21 20 21 20 19 19 20 20 20 19 20 20 19 19 20 20 19 18 18 18 18 18 18 18 18 17 18 18
31 24 22 27 30 34 35 35 34 26 20 19 26 24 25 24 24 22 21 21 21 20 20 20 20 19 19 19 19 19 19 19 20 20 19 18 17 18 18 18 19 18 19 18 19 18 18 18 18
32 25 25 26 34 34 35 35 35 25 24 27 25 25 25 25 24 23 22 21 21 21 21 20 20 20 20 18 18 19 18 19 19 19 19 18 18 18 19 18 18 18 18 19 19 18 18 18 17
33 33 29 34 34 34 35 34 35 35 27 29 27 26 26 25 25 24 24 23 22 21 21 21 20 20 19 19 18 18 19 19 20 20 19 19 18 18 18 18 18 18 18 18 18 18 18 17 17
33 34 34 34 34 34 34 34 34 31 30 27 26 26 26 26 25 25 24 23 23 22 22 21 20 19 19 18 18 18 18 19 19 19 19 19 19 19 18 18 18 18 18 18 18 18 18 18 17
34 34 34 34 34 34 35 33 31 31 31 29 28 28 28 27 26 25 24 23 22 22 21 20 20 20 19 19 18 17 18 18 17 17 19 18 18 18 18 18 18 18 18 18 19 18 18 18 18
33 33 34 34 34 35 34 30 28 30 31 31 30 29 29 27 26 25 24 23 22 21 20 19 21 21 21 21 21 20 20 19 18 17 18 18 18 17 18 17 18 18 18 17 18 18 18 18 18
32 33 31 34 33 35 34 30 26 30 28 31 31 30 29 28 26 25 24 23 22 21 21 20 19 20 21 21 21 20 19 18 19 19 18 18 18 18 17 17 18 18 18 18 18 19 18 18 18
32 31 32 23 24 34 34 31 31 29 28 32 31 30 29 28 27 26 24 23 22 22 21 20 20 19 19 19 20 20 19 18 18 18 18 18 18 17 17 17 17 17 18 18 18 18 18 18 17
32 32 27 19 24 34 34 34 32 31 34 33 31 30 30 28 27 26 25 24 23 21 21 20 19 19 18 18 18 18 17 17 17 18 18 18 18 18 17 17 17 16 17 17 18 18 18 18 17
33 33 33 22 32 33 33 33 34 34 32 33 32 27 30 29 28 26 25 25 23 22 20 19 19 18 18 18 18 18 18 17 17 17 18 18 17 17 17 17 17 16 16 17 18 18 18 17 17
33 32 32 33 34 33 33 33 34 25 21 23 28 31 31 29 29 27 26 25 24 22 21 19 19 19 18 18 18 17 17 17 17 17 17 17 16 16 16 17 17 17 17 17 17 18 18 17 18
32 32 32 32 34 34 33 32 32 22 21 28 30 32 31 30 29 28 25 25 24 22 21 20 19 18 18 17 17 17 17 17 17 16 16 17 17 16 16 16 17 16 17 17 17 18 18 18 17
31 33 33 32 32 31 34 31 32 26 26 27 26 32 31 30 29 28 25 24 23 22 22 20 20 18 18 17 17 17 16 16 16 16 16 16 16 16 16 16 16 17 17 17 17 18 18 18 17
32 34 33 32 32 31 32 31 30 31 26 24 25 25 31 30 29 26 24 23 22 22 22 21 20 19 18 17 17 16 16 16 16 15 15 16 16 16 16 16 16 16 17 17 17 17 18 18 17
33 32 32 31 31 29 31 31 30 26 25 24 27 31 30 28 26 24 23 22 22 23 22 21 20 19 17 16 16 16 16 15 16 16 16 16 16 16 16 16 16 16 17 17 17 17 18 17 17
32 31 29 28 29 29 31 32 31 32 29 29 30 30 29 26 24 23 22 23 23 22 21 20 19 18 17 16 16 16 16 15 15 16 15 16 16 16 16 16 16 16 16 17 17 17 17 17 17
31 31 29 28 29 28 28 24 26 32 31 32 31 30 28 25 24 24 23 23 23 21 20 20 18 17 17 16 16 16 15 15 15 15 15 15 15 15 16 16 16 16 16 16 17 17 16 16 17
32 30 32 30 31 30 29 29 30 32 31 31 31 30 29 25 24 22 23 24 22 21 20 20 17 17 16 16 16 16 15 15 15 16 15 15 15 15 16 16 16 16 16 16 17 16 17 17 17
32 33 30 30 27 27 30 30 27 26 24 30 30 30 29 25 23 23 24 23 22 20 19 18 17 17 16 16 16 15 15 15 15 16 16 15 15 15 16 16 16 16 16 16 16 16 16 16 16
31 30 31 31 31 29 29 25 25 22 24 24 30 29 28 25 24 23 23 22 22 20 19 19 18 17 17 17 16 16 16 15 15 15 16 16 15 15 16 15 16 16 15 15 15 16 16 15 15
33 32 31 29 29 30 30 25 25 19 20 22 28 29 28 25 23 23 23 22 21 20 20 19 18 18 18 17 16 16 16 16 15 16 15 15 15 15 15 15 15 15 15 15 15 15 14 14 15
Height
1488 1489 1490 1490 1497 1495 1468 1462 1451 1461 1466 1468 1470 1472 1482 1486 1485 1502 1499 1502 1504 1509 1513 1516 1519 1522 1525 1529 1533 1537 1539 1541 1544 1546 1549 1550 1551 1553 1554 1555 1556 1557 1559 1559 1560 1561 1562 1563 1564
1490 1498 1504 1504 1508 1508 1473 1454 1464 1465 1466 1468 1472 1474 1484 1491 1494 1499 1503 1504 1504 1509 1513 1517 1519 1523 1526 1529 1534 1537 1540 1543 1546 1548 1549 1551 1552 1554 1556 1557 1558 1559 1560 1561 1562 1562 1563 1564 1565
1491 1501 1505 1521 1521 1500 1474 1455 1461 1469 1470 1471 1477 1481 1485 1491 1495 1500 1504 1508 1507 1509 1514 1518 1521 1524 1528 1530 1534 1538 1541 1544 1547 1548 1551 1552 1553 1554 1556 1557 1558 1560 1561 1561 1562 1564 1565 1565 1566
1495 1497 1499 1499 1499 1477 1457 1454 1460 1471 1472 1471 1473 1484 1483 1491 1495 1501 1505 1507 1510 1510 1514 1520 1523 1525 1529 1531 1534 1538 1541 1544 1547 1549 1551 1552 1553 1555 1556 1557 1559 1560 1562 1562 1563 1563 1565 1565 1566
1496 1497 1529 1540 1499 1460 1451 1454 1458 1468 1469 1472 1488 1499 1488 1495 1502 1506 1508 1510 1511 1510 1515 1521 1525 1527 1530 1532 1535 1538 1541 1544 1546 1549 1551 1552 1553 1554 1555 1556 1559 1560 1561 1562 1562 1564 1565 1565 1566
1494 1497 1514 1527 1499 1458 1450 1454 1458 1465 1466 1478 1491 1499 1502 1506 1508 1509 1512 1512 1511 1511 1514 1521 1525 1527 1530 1532 1534 1537 1540 1543 1545 1547 1549 1551 1552 1554 1554 1555 1558 1559 1560 1562 1563 1564 1565 1566 1566
1492 1499 1499 1510 1505 1482 1456 1460 1461 1468 1471 1478 1495 1506 1509 1508 1510 1512 1514 1513 1512 1514 1515 1520 1524 1527 1529 1531 1534 1536 1539 1542 1544 1545 1547 1548 1550 1552 1553 1555 1557 1557 1559 1560 1563 1564 1565 1566 1566
1490 1482 1506 1506 1498 1499 1468 1463 1467 1468 1483 1491 1491 1498 1507 1506 1510 1510 1512 1514 1516 1515 1516 1520 1523 1526 1528 1530 1532 1534 1536 1539 1542 1544 1546 1547 1549 1551 1552 1554 1556 1556 1558 1559 1561 1563 1565 1566 1566
1492 1508 1531 1520 1509 1471 1462 1462 1465 1471 1479 1494 1500 1494 1501 1506 1506 1508 1509 1513 1514 1515 1517 1521 1524 1526 1527 1528 1529 1531 1534 1537 1539 1541 1544 1547 1548 1550 1552 1554 1555 1556 1558 1558 1559 1562 1564 1565 1566
1489 1512 1524 1491 1477 1465 1461 1461 1464 1478 1487 1502 1502 1504 1506 1504 1501 1505 1508 1513 1515 1515 1517 1520 1523 1524 1524 1524 1526 1530 1531 1532 1535 1539 1543 1546 1548 1550 1551 1553 1554 1556 1557 1558 1558 1561 1563 1565 1566
1482 1499 1481 1479 1468 1467 1464 1461 1462 1478 1491 1493 1490 1494 1502 1504 1497 1503 1510 1512 1515 1516 1517 1519 1522 1523 1522 1531 1534 1535 1536 1534 1533 1536 1540 1544 1546 1548 1549 1551 1553 1555 1556 1556 1557 1558 1561 1564 1565
1479 1474 1480 1467 1466 1467 1463 1463 1463 1461 1473 1479 1485 1489 1498 1501 1497 1502 1509 1511 1513 1514 1517 1519 1521 1520 1525 1531 1537 1536 1533 1534 1531 1532 1535 1538 1543 1544 1547 1549 1551 1553 1555 1555 1555 1556 1559 1562 1565
1474 1470 1468 1465 1466 1464 1464 1465 1465 1470 1469 1475 1484 1490 1496 1495 1498 1505 1508 1511 1513 1515 1518 1519 1519 1520 1526 1531 1530 1532 1533 1529 1526 1528 1529 1534 1539 1541 1543 1547 1550 1551 1555 1556 1555 1555 1557 1560 1563
1469 1465 1465 1465 1465 1464 1461 1466 1468 1473 1475 1477 1483 1488 1492 1495 1501 1504 1506 1509 1510 1513 1516 1517 1518 1518 1522 1528 1531 1531 1528 1531 1533 1538 1531 1530 1535 1539 1540 1544 1549 1550 1552 1555 1555 1555 1555 1559 1561
1470 1468 1464 1465 1464 1460 1461 1472 1478 1476 1474 1476 1481 1486 1489 1493 1497 1501 1504 1507 1509 1512 1515 1517 1517 1517 1518 1521 1524 1525 1523 1526 1532 1535 1526 1527 1532 1536 1539 1541 1544 1547 1550 1552 1553 1554 1555 1558 1560
1469 1466 1476 1459 1465 1457 1461 1479 1470 1466 1471 1470 1477 1481 1485 1491 1495 1499 1502 1505 1509 1512 1515 1517 1518 1517 1518 1518 1518 1518 1519 1518 1520 1521 1522 1525 1529 1532 1534 1537 1540 1543 1546 1549 1551 1552 1553 1555 1558
1466 1476 1466 1489 1469 1456 1458 1467 1461 1458 1460 1459 1465 1473 1479 1484 1492 1497 1501 1505 1509 1513 1514 1516 1518 1517 1518 1519 1519 1519 1519 1519 1519 1522 1522 1524 1525 1528 1530 1533 1536 1539 1543 1546 1549 1550 1551 1552 1556
1468 1464 1486 1523 1484 1459 1457 1454 1455 1460 1455 1459 1461 1473 1481 1486 1484 1492 1498 1504 1508 1512 1514 1517 1518 1518 1519 1519 1519 1518 1518 1517 1518 1520 1521 1521 1522 1523 1525 1528 1532 1536 1540 1542 1545 1547 1548 1551 1554
1458 1459 1463 1488 1457 1459 1461 1453 1449 1453 1456 1453 1455 1462 1470 1476 1478 1487 1495 1501 1505 1509 1513 1516 1517 1517 1517 1517 1517 1517 1515 1516 1516 1517 1517 1517 1518 1519 1520 1523 1527 1531 1535 1538 1543 1543 1546 1549 1553
1460 1463 1464 1455 1450 1454 1455 1456 1451 1461 1471 1471 1468 1465 1467 1464 1477 1485 1490 1497 1503 1507 1511 1514 1515 1514 1515 1515 1515 1514 1513 1512 1513 1512 1512 1513 1512 1515 1515 1518 1522 1526 1530 1533 1537 1540 1544 1548 1553
1465 1466 1462 1460 1449 1445 1452 1460 1453 1471 1466 1468 1459 1458 1461 1467 1475 1482 1484 1490 1504 1507 1510 1512 1513 1514 1513 1513 1511 1511 1510 1509 1506 1507 1506 1506 1508 1509 1511 1513 1518 1523 1525 1529 1532 1536 1540 1545 1550
1472 1455 1458 1460 1464 1473 1447 1474 1450 1465 1467 1467 1467 1461 1463 1469 1477 1484 1489 1496 1501 1505 1508 1510 1511 1511 1510 1511 1510 1508 1507 1504 1502 1501 1501 1501 1502 1504 1506 1510 1514 1518 1520 1525 1529 1534 1538 1542 1546
1465 1452 1456 1459 1464 1466 1462 1468 1461 1455 1477 1471 1467 1463 1460 1469 1478 1485 1490 1494 1499 1503 1504 1508 1509 1509 1509 1508 1507 1506 1504 1501 1499 1497 1495 1496 1499 1500 1502 1506 1510 1513 1517 1522 1526 1530 1535 1538 1545
1455 1457 1461 1464 1465 1482 1463 1465 1465 1466 1472 1464 1457 1459 1465 1473 1480 1486 1491 1495 1497 1501 1503 1506 1506 1507 1506 1506 1505 1503 1501 1498 1496 1494 1492 1492 1493 1496 1498 1502 1505 1509 1513 1516 1521 1526 1531 1537 1541
1456 1467 1487 1493 1486 1483 1453 1457 1451 1441 1450 1451 1457 1461 1469 1477 1482 1486 1493 1498 1499 1498 1502 1507 1506 1506 1505 1504 1503 1502 1501 1497 1494 1491 1489 1490 1491 1492 1495 1498 1501 1505 1509 1513 1518 1522 1528 1534 1536
1455 1464 1479 1496 1486 1485 1467 1494 1471 1437 1446 1449 1452 1460 1468 1476 1481 1486 1493 1498 1499 1499 1503 1507 1506 1506 1505 1504 1503 1502 1500 1496 1493 1492 1490 1490 1491 1492 1494 1496 1499 1502 1505 1509 1515 1519 1525 1530 1533
1451 1464 1453 1466 1456 1469 1464 1458 1449 1441 1448 1453 1456 1462 1469 1477 1483 1489 1492 1497 1499 1501 1504 1507 1507 1506 1505 1505 1504 1502 1500 1497 1494 1493 1492 1493 1493 1494 1494 1496 1498 1500 1502 1506 1511 1517 1522 1526 1530
1447 1443 1467 1464 1490 1488 1457 1456 1465 1457 1466 1459 1460 1464 1470 1478 1483 1487 1490 1494 1498 1502 1505 1507 1507 1506 1506 1505 1505 1504 1502 1499 1497 1497 1495 1495 1495 1496 1496 1497 1498 1499 1501 1505 1510 1515 1520 1524 1527
1447 1453 1447 1447 1452 1469 1470 1487 1468 1469 1463 1465 1463 1465 1470 1477 1482 1485 1492 1495 1498 1502 1505 1507 1507 1505 1505 1506 1506 1504 1504 1502 1501 1499 1499 1499 1499 1498 1497 1498 1499 1500 1503 1507 1511 1513 1519 1523 1528
1431 1438 1443 1461 1466 1450 1452 1477 1461 1477 1471 1457 1465 1465 1470 1476 1482 1488 1493 1496 1498 1500 1502 1504 1503 1503 1504 1505 1506 1505 1505 1504 1503 1503 1503 1502 1502 1503 1502 1501 1502 1505 1507 1508 1510 1514 1520 1524 1527
Wind_Speed
7 18 14 12 3 2 7 10 18 16 18 14 14 24 20 21 14 9 15 17 21 18 15 17 20 20 18 15 11 9 9 10 10 8 7 6 7 8 8 9 8 7 6 7 7 8 8 6 6
4 5 6 13 3 4 7 15 17 15 7 20 22 20 21 16 18 16 11 15 21 16 13 18 21 19 17 15 11 10 9 10 11 9 7 5 6 5 6 8 5 5 4 5 5 7 7 6 6
7 1 18 8 4 5 7 17 15 13 12 24 12 15 17 16 13 12 15 16 16 18 16 17 19 19 17 15 12 10 9 11 10 8 7 5 5 5 4 4 4 4 3 4 4 5 6 7 7
8 7 5 7 16 19 11 10 19 13 5 9 21 2 14 11 12 12 17 17 16 18 18 12 15 19 17 15 12 11 10 10 9 8 7 5 4 4 3 4 2 3 3 4 4 4 6 8 8
9 4 6 5 29 11 12 6 5 15 3 20 35 20 17 12 13 15 17 15 15 20 17 10 11 16 17 15 12 10 10 10 9 9 7 6 6 5 4 4 3 2 2 3 4 4 6 8 9
11 8 4 4 10 11 8 8 4 13 9 39 31 13 11 6 13 14 16 15 15 15 16 11 10 14 16 15 13 11 10 11 10 10 9 8 7 6 6 6 4 3 3 4 5 4 5 9 9
13 5 8 4 20 16 9 16 10 12 22 17 27 13 8 12 13 15 15 15 13 15 8 7 11 14 15 14 13 11 11 11 12 11 10 10 8 7 7 6 6 5 5 5 5 4 5 8 8
18 12 18 2 5 12 13 5 5 8 13 17 13 12 11 20 18 17 15 19 14 16 8 4 9 13 15 16 14 12 12 13 13 13 12 10 9 8 7 7 6 6 7 6 6 5 6 6 7
14 6 5 3 19 5 6 4 6 15 36 38 39 15 27 24 19 16 14 13 16 10 11 7 10 11 11 14 16 15 15 15 15 14 12 11 11 8 5 7 7 7 7 7 7 7 7 6 7
12 7 7 16 19 12 13 1 11 20 30 17 17 9 17 22 20 16 13 13 13 10 11 9 9 11 15 15 16 18 19 19 18 15 13 13 7 10 9 8 6 9 8 8 8 8 7 7 5
16 9 28 23 3 11 11 15 2 37 18 5 34 19 17 18 19 15 12 13 13 12 8 9 10 12 16 13 12 16 18 20 19 18 17 13 15 12 11 11 10 9 9 9 9 9 7 7 11
15 16 32 12 9 11 11 20 12 10 15 16 24 24 20 18 17 15 15 14 15 12 12 7 7 11 7 10 10 12 20 20 21 22 23 20 20 8 14 16 10 9 10 10 11 8 9 10 11
13 15 21 12 13 15 7 11 13 34 17 25 21 22 19 15 15 16 15 14 15 14 13 11 10 10 6 8 10 23 16 22 22 22 21 21 24 19 20 19 14 10 12 11 14 10 10 12 13
19 17 17 23 13 17 10 13 20 13 23 26 22 18 16 17 18 18 17 17 16 16 15 15 13 11 11 12 12 12 12 13 11 15 12 15 22 20 16 22 20 13 12 12 12 12 11 10 9
18 19 14 15 20 20 7 13 4 8 20 9 17 17 18 18 19 19 19 18 17 16 15 14 12 12 10 10 12 18 22 19 8 15 11 14 17 21 21 20 21 17 14 12 15 13 11 11 11
13 16 14 17 27 4 4 4 13 22 26 13 14 15 16 16 17 17 17 17 17 16 16 13 12 12 14 13 13 13 10 14 13 9 14 19 22 22 23 23 19 22 20 14 16 16 11 11 10
15 16 20 12 38 10 4 8 16 28 30 16 17 17 17 17 17 15 15 15 16 15 16 16 15 16 14 14 14 14 13 17 17 13 17 23 24 25 22 24 23 21 23 20 18 18 14 11 12
17 14 14 7 27 12 10 9 13 17 10 13 20 19 13 17 19 18 16 14 14 16 15 16 15 16 16 13 14 13 14 14 14 16 17 23 24 24 24 25 21 20 20 23 20 19 16 14 12
21 19 14 32 10 4 9 10 6 8 1 12 16 34 23 15 20 21 18 15 16 14 13 12 14 15 16 16 17 18 19 18 16 18 21 20 22 24 24 26 25 22 22 23 22 17 16 18 16
16 16 16 12 9 4 9 12 12 17 21 49 34 16 13 14 11 23 22 17 14 15 13 12 13 15 16 17 17 18 18 18 18 24 24 27 21 22 22 27 27 27 21 24 23 20 20 23 17
15 14 15 14 14 5 11 13 15 9 32 26 31 4 6 11 16 20 17 16 10 8 8 11 11 13 15 14 13 15 18 18 19 21 22 19 26 29 25 25 28 28 25 23 24 25 22 23 18
14 13 12 13 13 12 10 10 11 16 15 5 40 8 6 9 7 15 16 12 9 8 5 7 9 8 11 11 12 14 16 18 17 18 20 17 18 21 28 25 27 28 31 27 26 25 21 22 21
14 12 7 8 12 14 17 10 7 10 7 9 13 45 6 13 13 20 14 14 12 8 6 6 6 9 13 13 11 10 16 15 14 17 17 18 17 17 25 25 26 28 30 28 27 27 26 26 26
12 14 6 12 12 13 15 15 7 7 11 5 14 5 15 12 24 20 17 15 14 11 6 4 6 8 8 6 9 11 12 14 14 15 12 13 16 17 21 25 26 27 26 27 29 25 28 26 24
11 12 9 11 11 13 12 16 12 18 16 12 13 14 15 25 22 21 14 13 12 12 6 3 8 6 5 7 9 11 12 13 13 14 10 10 12 15 18 21 24 26 26 25 27 26 27 27 24
16 14 12 15 7 3 11 3 14 16 14 11 15 18 20 25 24 19 19 11 13 8 6 3 3 3 3 5 11 14 16 11 8 8 3 1 4 9 13 17 21 25 26 24 25 23 24 23 21
13 12 17 18 19 9 11 12 16 8 12 11 13 15 16 26 22 15 14 12 9 8 6 2 1 3 4 7 10 12 13 10 12 9 6 1 2 3 8 12 17 22 24 25 23 21 22 20 20
17 11 10 10 16 16 9 10 7 9 8 3 9 12 14 26 23 18 14 15 11 7 6 3 1 2 3 4 7 10 9 10 14 14 15 9 8 4 2 7 11 15 20 21 21 22 19 20 18
11 15 14 12 12 13 11 5 4 3 5 6 8 12 16 22 22 21 17 13 11 9 7 4 3 3 3 5 4 7 6 7 11 11 14 12 9 7 8 5 5 9 12 15 16 15 16 16 15
17 15 17 9 13 12 8 4 16 7 4 18 23 14 16 23 23 22 17 14 11 10 12 7 3 1 3 3 2 4 1 8 8 7 9 8 8 8 9 9 7 8 12 14 16 16 17 18 17
Wind_Direction
339 5 355 311 313 321 80 80 73 63 67 82 65 73 67 48 26 92 125 145 140 147 168 159 155 153 152 150 149 150 151 157 155 152 143 137 131 123 128 130 125 120 119 125 139 148 147 146 124
30 345 44 5 3 298 81 81 72 63 69 79 56 60 67 68 73 106 113 142 136 143 164 163 157 156 154 152 152 152 158 168 169 164 156 154 150 138 127 137 141 133 133 135 152 165 165 165 150
9 20 122 156 254 253 135 93 95 69 6 84 59 32 62 82 88 96 134 142 152 143 145 156 160 157 158 157 155 153 160 166 176 173 163 170 160 156 136 154 163 152 155 151 171 192 192 188 174
346 272 288 199 210 255 54 84 118 95 268 102 132 139 99 76 71 125 135 137 135 146 160 165 165 163 164 162 157 157 160 168 178 179 177 175 180 177 170 157 184 159 172 162 170 190 194 189 180
276 4 101 316 286 277 102 86 97 127 223 102 74 3 38 78 107 122 136 139 140 148 162 170 175 172 169 169 168 163 160 172 181 186 189 187 190 196 192 173 185 199 178 184 163 185 193 183 186
283 90 122 315 264 330 78 73 80 53 84 102 78 91 339 119 127 131 140 139 151 152 167 177 188 180 176 179 179 177 177 178 185 193 192 191 201 202 186 186 200 209 192 186 174 187 208 192 192
258 120 212 156 313 338 46 21 65 84 50 32 106 74 246 163 143 143 146 144 155 133 164 181 188 181 177 183 184 185 183 184 189 196 197 200 202 200 197 197 211 210 209 190 187 202 223 195 195
260 298 23 215 224 203 252 79 315 80 76 343 143 158 204 157 150 145 144 141 139 138 143 180 193 186 182 185 187 189 189 188 191 199 202 205 210 207 212 213 212 224 206 192 196 208 212 207 189
279 52 353 160 276 146 197 93 200 79 81 356 352 137 139 147 140 131 144 146 154 135 151 195 194 186 188 193 195 195 197 195 195 200 200 202 211 210 230 242 221 222 217 195 196 206 213 217 199
237 90 281 225 220 350 326 334 23 90 97 153 302 24 136 143 136 137 131 151 167 161 172 188 190 195 200 205 203 198 200 198 202 205 207 209 177 223 235 236 230 235 229 209 202 204 209 211 213
247 178 223 254 355 311 331 303 235 126 129 171 206 178 163 153 137 136 147 156 162 171 170 199 206 225 232 211 211 209 212 211 204 204 202 209 202 220 230 243 233 243 232 221 209 206 213 185 186
245 272 195 290 328 305 313 344 337 349 163 160 163 149 164 159 142 145 156 155 165 151 178 194 205 228 230 202 207 233 223 226 216 214 225 234 232 255 238 234 230 240 226 216 214 200 188 196 218
255 267 283 286 290 299 332 310 349 10 126 137 151 159 169 150 149 157 157 155 156 158 160 178 206 221 190 193 194 209 234 237 228 220 222 235 234 257 257 231 220 222 233 226 216 210 205 215 217
273 251 261 273 291 284 287 41 58 359 320 142 146 160 168 163 164 159 159 158 162 168 178 196 202 201 202 188 193 197 240 269 245 249 233 246 250 253 246 229 224 224 230 236 220 216 207 221 233
271 272 274 273 257 254 285 51 78 233 252 161 151 167 171 165 164 165 165 166 166 171 177 196 194 203 215 223 217 221 222 233 227 230 263 257 257 250 240 241 230 221 228 232 230 223 210 209 220
265 268 266 260 301 236 225 148 229 220 233 156 171 176 166 166 165 167 168 172 174 174 181 198 190 209 217 227 242 251 242 248 273 294 236 256 258 254 244 234 239 229 231 229 233 223 210 198 221
250 251 242 33 299 283 211 157 206 214 216 181 171 179 170 166 160 169 172 177 183 183 190 195 197 219 229 226 238 246 234 222 223 242 248 240 258 257 243 233 236 239 229 233 230 228 216 208 219
256 262 98 65 269 206 247 267 161 235 173 188 188 166 178 174 171 175 182 184 191 191 205 206 207 215 227 230 247 240 237 245 241 233 253 262 263 267 245 235 228 230 226 225 225 226 218 220 233
286 302 320 191 217 279 286 289 327 193 196 229 198 148 178 175 179 183 183 181 186 193 200 213 223 228 231 235 243 251 251 248 235 244 236 254 247 246 251 235 223 216 217 223 225 224 211 218 236
275 285 288 294 276 251 296 295 291 81 74 291 299 187 160 148 176 181 187 178 187 197 195 223 236 243 243 252 257 258 258 260 247 250 252 238 248 246 244 232 226 222 218 221 217 221 214 221 229
265 268 285 278 303 246 265 267 264 112 148 240 284 147 177 169 172 182 183 147 168 188 233 261 251 256 259 266 266 266 273 276 278 274 270 253 243 239 243 235 226 220 224 224 219 217 218 227 230
255 252 249 285 292 281 285 290 279 150 182 234 318 181 186 136 111 158 133 135 161 183 229 246 271 266 267 282 293 281 279 278 282 274 270 260 249 242 236 233 226 223 226 225 223 218 219 225 231
254 269 299 288 276 275 270 272 35 77 72 83 346 282 125 125 140 129 136 147 160 157 183 241 270 273 295 304 309 298 303 294 291 288 273 253 247 245 229 229 225 222 224 226 220 219 219 225 225
241 261 242 272 268 262 253 259 203 132 212 216 206 164 110 108 117 125 134 151 144 138 137 300 277 281 302 328 305 318 324 309 310 302 282 257 247 240 229 222 221 220 221 222 221 221 223 220 223
226 248 235 245 236 246 293 238 260 139 161 175 174 123 126 125 127 131 146 156 151 145 161 180 266 305 315 326 346 351 342 330 319 330 269 262 239 226 221 217 217 216 216 215 216 218 218 219 217
206 239 239 247 237 272 353 21 294 113 111 120 133 152 145 142 144 145 154 165 142 135 142 174 265 273 344 345 346 347 346 353 351 350 349 224 210 215 215 219 215 213 215 216 217 220 215 217 219
241 213 251 269 282 243 199 233 219 132 116 127 139 159 149 147 143 144 148 148 134 132 138 166 113 26 22 17 356 346 359 24 32 29 30 28 165 198 209 212 211 213 212 215 211 212 212 214 218
246 226 233 240 263 275 254 229 134 62 31 127 157 165 147 140 151 154 159 143 141 143 151 172 118 78 69 1 352 0 10 45 55 53 52 59 73 80 158 198 204 211 209 205 200 204 209 217 219
209 239 250 252 235 249 271 65 134 119 242 302 205 170 154 145 152 154 149 143 145 152 157 147 161 7 41 26 13 348 21 63 74 67 61 54 79 80 81 120 158 183 182 186 186 193 199 194 196
259 226 228 242 248 266 284 164 149 151 300 255 235 162 163 152 147 142 151 151 161 166 157 172 152 8 45 41 51 341 84 69 56 84 63 60 76 78 90 99 131 155 168 170 179 179 177 181 180